Regional Weather Roundup
Issued by NWS Sioux Falls, SD

Home | Current Version | Previous Version | Graphics & Text | Print | Product List | Glossary Off
Versions: 1 2 3 4 5 6 7 8 9 10 11 12 13 14 15 16 17 18 19 20 21 22 23 24 25 26 27 28 29 30 31 32 33 34 35 36 37 38 39 40 41 42 43 44 45 46 47 48 49 50

000
ASUS43 KFSD 291402
RWRFSD

WEATHER ROUNDUP FOR SE SOUTH DAKOTA/SW MINNESOTA/NW IOWA
NATIONAL WEATHER SERVICE SIOUX FALLS SD
900 AM CDT WED JUL 29 2015

NOTE: "FAIR" INDICATES FEW OR NO CLOUDS BELOW 12,000 FEET WITH NO
SIGNIFICANT WEATHER AND OR OBSTRUCTIONS TO VISIBILITY.


SDZ038>040-050-052>070-291500-
SOUTHEAST SOUTH DAKOTA

CITY           SKY/WX    TMP DP  RH WIND       PRES   REMARKS
BROOKINGS      SUNNY     64  52  63 W12       30.10R
CHAMBERLAIN    SUNNY     67  47  49 W15G22    30.15R
HURON          SUNNY     68  51  54 W10       30.08R
MADISON        FAIR      64  54  68 W13       30.11R
MITCHELL       SUNNY     70  51  51 W10       30.12R
SIOUX FALLS    MOSUNNY   67  53  61 W7        30.12R
WINNER         FAIR      72  47  40 SW10      30.19R
YANKTON        SUNNY     70  55  60 SW12      30.15R
$$

MNZ071-072-080-081-089-090-097-098-291500-
SOUTHWEST MINNESOTA

CITY           SKY/WX    TMP DP  RH WIND       PRES   REMARKS
FAIRMONT       SUNNY     68  52  56 W9        30.07R
JACKSON        SUNNY     70  54  56 W13       30.10R
LUVERNE        SUNNY     66  55  68 SW12      30.12S
MARSHALL       SUNNY     70  48  46 W18G24    30.04R
MONTEVIDEO     SUNNY     72  54  53 W12G20    30.00R
PIPESTONE      SUNNY     64  54  68 W12       30.10R
REDWOOD FALLS  SUNNY     70  51  51 W17G24    30.00S
TRACY          SUNNY     68  54  60 W13G20    30.06R
WINDOM         SUNNY     70  54  56 W13       30.07S
WORTHINGTON    SUNNY     64  52  63 W10       30.12R
$$

IAZ001>003-012>014-020>022-031-032-NEZ013-014-SDZ071-291500-
NORTHWEST IOWA

CITY           SKY/WX    TMP DP  RH WIND       PRES   REMARKS
DENISON        SUNNY     68  63  83 SW3       30.15R FOG
ESTHERVILLE    SUNNY     66  57  72 SW9       30.10R
SIOUX CITY     SUNNY     68  60  75 CALM      30.15R
SPENCER        SUNNY     69  56  62 W10       30.12R
$$

ABBREVIATIONS USED IN REMARKS
   TC - TEMPERATURE IN CELSIUS
  WCI - WIND CHILL INDEX
   HX - HEAT INDEX
  VSB - VISIBILITY




USA.gov is the U.S. government's official web portal to all federal, state and local government web resources and services.